MDT,Max TemperatureF,Mean TemperatureF,Min TemperatureF,Max Dew PointF,MeanDew PointF,Min DewpointF,Max Humidity, Mean Humidity, Min Humidity, Max Sea Level PressureIn, Mean Sea Level PressureIn, Min Sea Level PressureIn, Max VisibilityMiles, Mean VisibilityMiles, Min VisibilityMiles, Max Wind SpeedMPH, Mean Wind SpeedMPH, Max Gust SpeedMPH,PrecipitationIn, CloudCover, Events, WindDirDegrees
2013-3-1,48,41,33,39,35,31,92,84,76,30.64,30.56,30.49,10,8,4,9,4,14,0.00,5,,252
2013-3-2,53,42,30,39,34,28,100,80,59,30.51,30.33,30.08,10,6,0,10,3,14,0.01,2,Fog,338
2013-3-3,51,39,26,38,23,11,86,55,24,30.22,30.11,30.04,10,10,6,28,11,33,T,3,Rain,315
2013-3-4,48,35,22,22,16,11,81,52,23,30.35,30.28,30.23,10,10,8,10,4,14,0.00,0,,156
2013-3-5,55,43,30,24,20,17,59,42,24,30.20,30.01,29.79,10,10,10,24,8,33,0.00,3,,76
2013-3-6,51,41,30,39,31,24,82,62,42,30.03,29.79,29.70,10,10,4,32,7,39,0.06,4,Rain,259
2013-3-7,52,38,23,28,23,21,88,60,32,30.14,30.07,30.01,10,10,10,13,3,14,0.00,0,,290
2013-3-8,57,41,24,26,22,19,81,52,23,30.03,29.99,29.91,10,10,10,24,9,30,0.00,0,,296
2013-3-9,58,48,37,26,23,18,59,43,26,30.42,30.26,30.04,10,10,10,25,15,32,0.00,0,,320
2013-3-10,57,42,26,28,20,18,69,45,21,30.50,30.40,30.31,10,10,9,9,3,13,0.00,3,,288
2013-3-11,60,49,38,37,32,25,65,51,36,30.32,30.29,30.24,10,10,10,16,6,20,0.00,6,,305
2013-3-12,65,49,32,38,34,28,89,62,34,30.32,30.25,30.16,10,10,10,9,3,13,0.00,2,,340
2013-3-13,64,52,40,40,37,35,85,62,39,30.29,30.23,30.19,10,9,2,9,3,10,0.00,0,,290
2013-3-14,60,46,31,40,36,28,89,66,42,30.24,30.19,30.13,10,10,6,8,2,10,0.00,0,,278
2013-3-15,66,55,43,38,34,26,76,50,24,30.19,30.13,30.06,10,10,10,16,6,22,0.00,0,,291
2013-3-16,61,48,34,34,30,24,76,52,27,30.12,30.00,29.84,10,10,10,28,7,35,0.00,1,,240
2013-3-17,50,40,30,31,19,11,70,46,21,30.17,30.08,29.91,10,10,5,39,12,51,T,1,,294
2013-3-18,56,42,27,23,18,13,63,42,20,30.24,30.17,30.09,10,10,10,16,4,20,0.00,3,,261
2013-3-19,59,40,20,22,15,8,65,40,15,30.32,30.18,29.94,10,10,10,25,4,33,0.00,3,,32
2013-3-20,66,53,39,48,38,8,82,48,14,29.91,29.79,29.62,10,10,7,37,14,56,0.20,7,Rain,178
2013-3-21,49,42,34,30,21,13,75,51,27,30.19,30.11,29.97,10,10,10,24,11,29,0.00,4,,298
2013-3-22,46,37,28,26,19,13,75,51,27,30.29,30.17,30.12,10,10,10,23,11,31,0.00,3,,292
2013-3-23,46,34,21,20,15,9,77,51,24,30.41,30.35,30.29,10,10,8,13,4,16,0.00,0,,253
2013-3-24,50,34,17,18,13,10,74,48,21,30.39,30.31,30.22,10,10,3,12,3,17,0.00,1,,241
2013-3-25,58,45,32,25,19,15,56,40,23,30.23,30.13,29.99,10,10,10,16,7,22,0.00,3,,78
2013-3-26,60,49,37,34,30,25,65,51,37,30.01,29.98,29.95,10,10,3,12,2,18,0.00,4,,114
2013-3-27,67,50,32,37,33,26,82,56,29,30.04,29.98,29.92,10,10,10,10,3,14,0.00,4,,134
2013-3-28,69,54,38,39,34,29,76,50,24,30.09,30.03,29.97,10,10,5,10,2,13,0.00,4,,249
2013-3-29,70,56,42,42,38,36,82,56,30,30.20,30.15,30.06,10,10,9,10,5,17,T,3,,273
2013-3-30,72,54,36,40,34,28,85,54,23,30.28,30.20,30.10,10,10,10,10,2,18,0.00,0,,259
2013-3-31,74,52,29,34,30,25,82,49,16,30.11,30.01,29.85,10,10,10,12,3,15,0.00,0,,274